Location: Eastlake (historical)
(39.0077°N, 122.6678°W)
Time: 10:06:50
(UTC+00:00)

ALOS - Pass Details

Date: 25 April 2021
Orbit: 682 x 685 km, 97.9° (Epoch: 08 May)

Event Time Altitude Azimuth Distance (km) Brightness Sun altitude
Rises 12:00:05 0° 18° (NNE) 3,053 6.4 -14.9°
Reaches altitude 10° 12:02:24 10° 24° (NNE) 2,133 5.7 -14.5°
Maximum altitude 12:06:55 48° 99° (E) 887 3.2 -13.7°
Drops below altitude 10° 12:11:24 10° 174° (S) 2,118 4.6 -13.0°
Sets 12:13:42 0° 180° (S) 3,029 5.3 -12.6°
